Weather History for KWAL - December, 2012

Change the Weather History Date:

Friday, December 14, 2012

  Actual Average Record
Temperature  
Mean Temperature 41 °F 41 °F  
Max Temperature 53 °F 49 °F 68 °F (2001)
Min Temperature 28 °F 32 °F 19 °F (1982)
Degree Days  
Heating Degree Days 24    
Month to date heating degree days 213  
Since 1 July heating degree days 901  
Cooling Degree Days 0    
Month to date cooling degree days 0  
Year to date cooling degree days 1616  
Moisture  
Dew Point 26 °F    
Average Humidity 58    
Maximum Humidity 78    
Minimum Humidity 38    
Precipitation  
Precipitation 0.00 in 0.11 in 1.59 in (2003)
Month to date precipitation 0.13 1.59  
Year to date precipitation 45.31 39.00  
Sea Level Pressure  
Sea Level Pressure 30.29 in    
Wind  
Wind Speed 4 mph (NW)    
Max Wind Speed 12 mph    
Max Gust Speed 15 mph    
Visibility 10 miles    
Events      
T = Trace of Precipitation, MM = Missing Value Source: NWS Daily Summary

Daily Weather History Graph

Daily Weather History Graph

Search for Another Location

Airport or City:

Trip Planner

Search our weather history database for the weather conditions in past years. The results will help you decide how hot, cold, wet, or windy it might be!

Date:

Astronomy

Dec. 14, 2012 Rise Set
Actual Time 7:10 AM EST 4:43 PM EST
Civil Twilight 6:40 AM EST 5:12 PM EST
Nautical Twilight 6:07 AM EST 5:45 PM EST
Astronomical Twilight 5:35 AM EST 6:17 PM EST
Moon 8:13 AM EST (12/14) 6:32 PM EST (12/14)
Length of Visible Light 10h 32m
Length of Day
9h 33m
Waxing Crescent, 3% of the Moon is Illuminated
Dec 14
Waxing Crescent
Dec 20
First Quarter
Dec 28
Full
Jan 4
Last Quarter
Jan 11
New

Hourly Weather History & Observations

Time (EST) Temp. Windchill Dew Point Humidity Pressure Visibility Wind Dir Wind Speed Gust Speed Precip Events Conditions
12:54 AM 33.1 °F 28.7 °F 25.0 °F 72% 30.33 in 10.0 mi NNW 4.6 mph - N/A   Clear
1:54 AM 33.1 °F 28.7 °F 25.0 °F 72% 30.33 in 10.0 mi NNW 4.6 mph - N/A   Clear
2:54 AM 32.0 °F 26.4 °F 24.1 °F 73% 30.33 in 10.0 mi NNW 5.8 mph - N/A   Clear
3:54 AM 33.1 °F 28.7 °F 25.0 °F 72% 30.32 in 10.0 mi NNW 4.6 mph - N/A   Clear
4:54 AM 33.1 °F 28.7 °F 25.0 °F 72% 30.32 in 10.0 mi NNW 4.6 mph - N/A   Clear
5:54 AM 30.2 °F 24.3 °F 23.0 °F 75% 30.34 in 10.0 mi NNW 5.8 mph - N/A   Clear
6:54 AM 28.0 °F 24.2 °F 23.0 °F 81% 30.34 in 10.0 mi NW 3.5 mph - N/A   Clear
7:54 AM 30.9 °F 27.5 °F 24.1 °F 76% 30.34 in 10.0 mi NW 3.5 mph - N/A   Clear
8:54 AM 43.0 °F - 30.9 °F 62% 30.34 in 10.0 mi Calm Calm - N/A   Clear
9:54 AM 46.9 °F - 30.9 °F 54% 30.34 in 10.0 mi NW 5.8 mph - N/A   Clear
10:54 AM 48.9 °F - 28.9 °F 46% 30.33 in 10.0 mi NW 3.5 mph - N/A   Clear
11:54 AM 51.1 °F - 27.0 °F 39% 30.30 in 10.0 mi West 8.1 mph - N/A   Clear
12:54 PM 53.1 °F - 28.9 °F 40% 30.28 in 10.0 mi WNW 6.9 mph - N/A   Clear
1:54 PM 53.1 °F - 28.0 °F 38% 30.26 in 10.0 mi WNW 9.2 mph - N/A   Clear
2:54 PM 51.1 °F - 27.0 °F 39% 30.25 in 10.0 mi WNW 6.9 mph - N/A   Clear
3:54 PM 50.0 °F - 27.0 °F 41% 30.25 in 10.0 mi West 4.6 mph - N/A   Clear
4:54 PM 43.0 °F 41.3 °F 27.0 °F 53% 30.24 in 10.0 mi West 3.5 mph - N/A   Clear
5:54 PM 41.0 °F 39.0 °F 27.0 °F 57% 30.24 in 10.0 mi WNW 3.5 mph - N/A   Clear
6:54 PM 37.9 °F 35.5 °F 28.0 °F 68% 30.25 in 10.0 mi WNW 3.5 mph - N/A   Clear
7:54 PM 36.0 °F 32.1 °F 27.0 °F 70% 30.27 in 10.0 mi WNW 4.6 mph - N/A   Clear
8:54 PM 34.0 °F - 26.1 °F 73% 30.26 in 10.0 mi Calm Calm - N/A   Clear
9:54 PM 32.0 °F 28.7 °F 26.1 °F 79% 30.25 in 10.0 mi WNW 3.5 mph - N/A   Clear
10:54 PM 30.9 °F 26.2 °F 25.0 °F 79% 30.27 in 9.0 mi WNW 4.6 mph - N/A   Clear
11:54 PM 33.1 °F - 27.0 °F 78% 30.26 in 10.0 mi Calm Calm - N/A   Clear